Flag for France Weather past 2 weeks in Nîmes, France

Now
46 °F

Clear.


Feels Like: 42 °F
Forecast: 48 / 71 °F
Wind: 8 mph from North

Location: Nimes / Garons

Current Time: Apr 2, 2015 at 3:40:48 AM

Latest Report: Apr 2, 2015 at 3:00 AM


Visibility: N/A

Pressure: 30.30 "Hg

Humidity: 53%

Dew point: 30 °F

Location of NîmesLocation

Historic Weather in Nîmes — Graph

°F

Nîmes temperature yesterday

Maximum temperature yesterday: 61 °F (at 2:00 PM)
Minimum temperature yesterday: 48 °F (at 11:00 PM)
Average temperature yesterday: 55 °F

Past Weeks' High & Low Weather Summary

 TemperatureHumidityPressure
High70 °F (Mar 28, 4:00 PM)100% (Mar 19, 4:30 AM)30.33 "Hg (Mar 19, 4:30 AM)
Low41 °F (Mar 26, 4:30 AM)29% (Apr 1, 3:30 PM)29.59 "Hg (Mar 25, 4:00 AM)
Average54 °F65%30.01 "Hg
* Reported Mar 18 1:00 AM — Apr 2 2:30 AM, Nîmes, Weather by CustomWeather, © 2015

Note: Actual official high and low records may vary slightly from our data, if they occured in-between our weather recording intervals... More about our weather records

Advertising

Nîmes weather history for previous 24 hours

 ConditionsComfort  
Time TempWeatherWind HumidityBarometerVisibility
2:30 AM
Thu, Apr 2
46 °FClear.9 mph53%30.30 "HgN/A
2:00 AM46 °FClear.7 mph53%30.30 "HgN/A
1:30 AM46 °FClear.6 mph53%30.30 "HgN/A
1:00 AM46 °FClear.5 mph53%30.33 "HgN/A
12:30 AM46 °FClear.9 mph53%30.30 "HgN/A
12:00 AM48 °FClear.13 mph50%30.30 "HgN/A
11:30 PM
Wed, Apr 1
48 °FClear.10 mph50%30.30 "HgN/A
11:00 PM48 °FClear.10 mph46%30.30 "HgN/A
10:30 PM50 °FClear.12 mph43%30.30 "HgN/A
10:00 PM52 °FClear.13 mph41%30.30 "HgN/A
9:30 PM52 °FClear.14 mph41%30.30 "HgN/A
9:00 PM50 °FClear.7 mph50%30.27 "HgN/A
8:30 PM52 °FClear.9 mph47%30.27 "HgN/A
8:00 PM54 °FClear.14 mph41%30.24 "HgN/A
7:30 PM55 °FClear.20 mph36%30.24 "HgN/A
7:00 PM57 °FClear.17 mph36%30.24 "HgN/A
6:30 PM59 °FClear.17 mph34%30.21 "HgN/A
6:00 PM61 °FClear.22 mph31%30.21 "HgN/A
5:30 PM61 °FClear.22 mph31%30.21 "HgN/A
5:00 PM61 °FClear.24 mph31%30.21 "HgN/A
4:30 PM61 °FClear.18 mph31%30.21 "HgN/A
4:00 PM61 °FClear.24 mph31%30.21 "HgN/A
3:30 PM61 °FClear.22 mph29%30.24 "HgN/A
3:00 PM61 °FClear.23 mph31%30.24 "HgN/A
2:30 PM61 °FClear.22 mph31%30.24 "HgN/A
2:00 PM61 °FClear.21 mph31%30.27 "HgN/A
1:30 PM59 °FClear.20 mph34%30.27 "HgN/A
1:00 PM59 °FClear.23 mph34%30.27 "HgN/A
12:30 PM59 °FClear.24 mph34%30.27 "HgN/A
12:00 PM57 °FClear.17 mph44%30.30 "HgN/A
11:30 AM57 °FClear.20 mph48%30.30 "HgN/A
11:00 AM55 °FClear.18 mph47%30.30 "HgN/A
10:30 AM54 °FClear.16 mph51%30.30 "HgN/A
10:00 AM54 °FClear.14 mph54%30.30 "HgN/A
9:30 AM52 °FClear.17 mph58%30.27 "HgN/A
9:00 AM52 °FClear.20 mph62%30.27 "HgN/A
8:30 AM52 °FClear.16 mph58%30.27 "HgN/A
8:00 AM50 °FClear.14 mph54%30.24 "HgN/A
7:30 AM50 °FClear.13 mph54%30.24 "HgN/A
7:00 AM50 °FClear.13 mph50%30.21 "HgN/A
6:30 AM52 °FClear.14 mph47%30.21 "HgN/A
6:00 AM52 °FClear.16 mph47%30.21 "HgN/A
5:30 AM52 °FClear.15 mph47%30.21 "HgN/A
4:30 AM52 °FClear.15 mph47%30.21 "HgN/A
4:00 AM54 °FClear.16 mph44%30.21 "HgN/A
3:30 AM54 °FClear.16 mph47%30.21 "HgN/A
3:00 AM54 °FClear.18 mph47%30.18 "HgN/A
Weather by CustomWeather, © 2015

See weather overviewHow to use our weather pages